Location: Unspecified
(0.0000°N, 0.0000°E)
Time: 01:16:30
(UTC+00:00)

ARGOS - Pass Details

Date: 05 July 2022
Orbit: 819 x 835 km, 98.4° (Epoch: 14 August)

Event Time Altitude Azimuth Distance (km) Brightness Sun altitude
Rises 19:20:10 0° 199° (SSW) 3,359 6.3 -17.4°
Reaches altitude 10° 19:23:20 10° 218° (SW) 2,427 5.8 -18.1°
Maximum altitude 19:26:41 17° 257° (WSW) 1,981 5.8 -18.8°
Drops below altitude 10° 19:30:03 10° 296° (WNW) 2,427 6.8 -19.6°
Sets 19:33:15 0° 316° (NW) 3,360 7.5 -20.3°
